TimeEST,TemperatureF,Dew PointF,Humidity,Sea Level PressureIn,VisibilityMPH,Wind Direction,Wind SpeedMPH,Gust SpeedMPH,PrecipitationIn,Events,Conditions,WindDirDegrees,DateUTC
12:54 AM,9.0,1.9,73,29.92,10.0,Calm,Calm,-,N/A,,Overcast,0,2013-01-02 05:54:00
1:54 AM,10.0,3.9,76,29.93,10.0,Calm,Calm,-,N/A,,Overcast,0,2013-01-02 06:54:00
2:54 AM,9.0,3.0,77,29.92,10.0,NNE,3.5,-,N/A,,Overcast,30,2013-01-02 07:54:00
3:54 AM,9.0,3.9,80,29.92,9.0,Calm,Calm,-,N/A,,Overcast,0,2013-01-02 08:54:00
4:54 AM,10.0,5.0,80,29.90,3.0,Calm,Calm,-,0.00,Snow,Light Snow,0,2013-01-02 09:54:00
5:02 AM,8.6,5.0,85,29.84,2.5,Calm,Calm,-,0.00,Snow,Light Snow,0,2013-01-02 10:02:00
5:41 AM,10.4,6.8,85,29.84,1.8,Calm,Calm,-,0.00,Snow,Light Snow,0,2013-01-02 10:41:00
5:54 AM,9.0,5.0,84,29.88,2.0,Calm,Calm,-,0.00,Snow,Light Snow,0,2013-01-02 10:54:00
6:05 AM,10.4,5.0,79,29.83,2.0,Calm,Calm,-,0.00,Snow,Light Snow,0,2013-01-02 11:05:00
6:24 AM,8.6,5.0,85,29.83,2.0,NNW,3.5,-,0.00,Snow,Light Snow,340,2013-01-02 11:24:00
6:42 AM,8.6,5.0,85,29.83,1.8,North,3.5,-,0.00,Snow,Light Snow,10,2013-01-02 11:42:00
6:54 AM,9.0,5.0,84,29.88,1.5,Calm,Calm,-,0.00,Snow,Light Snow,0,2013-01-02 11:54:00
7:11 AM,8.6,5.0,85,29.84,2.0,Calm,Calm,-,0.00,Snow,Light Snow,0,2013-01-02 12:11:00
7:39 AM,8.6,5.0,85,29.85,1.8,North,3.5,-,0.00,Snow,Light Snow,10,2013-01-02 12:39:00
7:54 AM,9.0,6.1,88,29.91,1.8,Calm,Calm,-,0.00,Snow,Light Snow,0,2013-01-02 12:54:00
8:04 AM,8.6,6.8,92,29.85,2.0,Calm,Calm,-,0.00,Snow,Light Snow,0,2013-01-02 13:04:00
8:24 AM,10.4,6.8,85,29.86,2.0,Calm,Calm,-,0.00,Snow,Light Snow,0,2013-01-02 13:24:00
8:43 AM,10.4,6.8,85,29.87,1.2,Calm,Calm,-,0.01,Snow,Light Snow,0,2013-01-02 13:43:00
8:54 AM,10.0,6.1,84,29.93,1.5,Calm,Calm,-,0.01,Snow,Light Snow,0,2013-01-02 13:54:00
9:04 AM,10.4,6.8,85,29.88,1.2,Calm,Calm,-,0.00,Snow,Light Snow,0,2013-01-02 14:04:00
9:54 AM,10.9,6.1,81,29.97,1.8,ENE,4.6,-,0.00,Snow,Light Snow,60,2013-01-02 14:54:00
9:59 AM,10.4,6.8,85,29.92,2.0,NE,5.8,-,0.00,Snow,Light Snow,40,2013-01-02 14:59:00
10:06 AM,10.4,6.8,85,29.92,3.0,NNE,4.6,-,0.00,Snow,Light Snow,20,2013-01-02 15:06:00
10:54 AM,10.9,5.0,77,29.99,4.0,NNE,4.6,-,0.00,,Haze,20,2013-01-02 15:54:00
11:54 AM,10.9,3.9,73,30.00,1.8,NNE,5.8,-,0.00,Snow,Light Snow,30,2013-01-02 16:54:00
11:58 AM,10.4,3.2,73,29.95,2.5,NNE,6.9,-,0.00,Snow,Light Snow,20,2013-01-02 16:58:00
12:07 PM,10.4,3.2,73,29.95,4.0,NNE,6.9,-,0.00,Snow,Light Snow,20,2013-01-02 17:07:00
12:27 PM,10.4,3.2,73,29.96,2.5,North,8.1,-,0.00,Snow,Light Snow,350,2013-01-02 17:27:00
12:46 PM,8.6,1.4,73,29.96,4.0,NNW,11.5,19.6,0.00,,Haze,340,2013-01-02 17:46:00
12:54 PM,10.0,1.0,67,30.02,4.0,North,6.9,-,0.00,,Haze,350,2013-01-02 17:54:00
1:04 PM,8.6,1.4,73,29.96,4.0,NNW,10.4,-,N/A,,Haze,340,2013-01-02 18:04:00
1:54 PM,8.1,-2.0,64,30.04,5.0,North,16.1,23.0,0.00,,Overcast,350,2013-01-02 18:54:00
2:15 PM,6.8,-2.2,67,30.00,6.0,NNW,15.0,21.9,N/A,,Haze,340,2013-01-02 19:15:00
2:54 PM,6.1,-5.1,60,30.09,10.0,North,10.4,17.3,N/A,,Overcast,360,2013-01-02 19:54:00
3:54 PM,3.9,-5.1,66,30.13,3.0,North,6.9,-,N/A,,Haze,360,2013-01-02 20:54:00
4:07 PM,3.2,-5.8,66,30.08,2.5,North,4.6,-,0.00,Snow,Light Snow,10,2013-01-02 21:07:00
4:14 PM,3.2,-5.8,66,30.09,4.0,NNW,6.9,-,0.00,,Haze,340,2013-01-02 21:14:00
4:54 PM,1.9,-8.0,63,30.18,9.0,North,8.1,-,0.00,,Overcast,360,2013-01-02 21:54:00
5:54 PM,-0.0,-8.0,69,30.20,9.0,North,6.9,-,N/A,,Overcast,350,2013-01-02 22:54:00
6:54 PM,-0.9,-8.0,72,30.21,9.0,Variable,6.9,-,N/A,,Mostly Cloudy,0,2013-01-02 23:54:00
7:54 PM,-0.9,-9.9,66,30.24,10.0,NNW,8.1,-,N/A,,Scattered Clouds,340,2013-01-03 00:54:00
8:08 PM,-0.4,-9.4,66,30.17,10.0,Variable,4.6,-,N/A,,Mostly Cloudy,0,2013-01-03 01:08:00
8:33 PM,-2.2,-9.4,71,30.16,10.0,North,8.1,-,N/A,,Scattered Clouds,10,2013-01-03 01:33:00
8:54 PM,-2.0,-11.0,66,30.23,10.0,NNE,3.5,-,N/A,,Clear,30,2013-01-03 01:54:00
9:54 PM,-2.0,-11.9,63,30.23,10.0,North,11.5,17.3,N/A,,Clear,360,2013-01-03 02:54:00
10:54 PM,-6.0,-13.0,72,30.25,10.0,Calm,Calm,-,N/A,,Clear,0,2013-01-03 03:54:00
11:54 PM,-9.9,-15.0,78,30.27,10.0,Calm,Calm,-,N/A,,Clear,0,2013-01-03 04:54:00